Great Salt Lake Weather Center

Moon Phase Calendar



Great Salt Lake Water Level
Online Cameras

 


      

Current Conditions in Little Mountain
2/28/2024 12:01:12 AM

28°F
Feels Like 23
Clear
Humidity
45%
Pressure
30.27"
Wind
4.5 mph (SSW)
Dew Point
11°F
UV Index
0/10 (Low)
Visibility
6 mi

Hourly Forecast

Date & Time Wed, Feb 28
12:00 AM
Wed, Feb 28
1:00 AM
Wed, Feb 28
2:00 AM
Wed, Feb 28
3:00 AM
Wed, Feb 28
4:00 AM
Wed, Feb 28
5:00 AM
Wed, Feb 28
6:00 AM
Wed, Feb 28
7:00 AM
Wed, Feb 28
8:00 AM
Wed, Feb 28
9:00 AM
Wed, Feb 28
10:00 AM
Wed, Feb 28
11:00 AM
Wed, Feb 28
12:00 PM
Wed, Feb 28
1:00 PM
Wed, Feb 28
2:00 PM
Wed, Feb 28
3:00 PM
Wed, Feb 28
4:00 PM
Wed, Feb 28
5:00 PM
Wed, Feb 28
6:00 PM
Wed, Feb 28
7:00 PM
Wed, Feb 28
8:00 PM
Wed, Feb 28
9:00 PM
Wed, Feb 28
10:00 PM
Wed, Feb 28
11:00 PM
Thu, Feb 29
12:00 AM
Thu, Feb 29
1:00 AM
Thu, Feb 29
2:00 AM
Thu, Feb 29
3:00 AM
Thu, Feb 29
4:00 AM
Thu, Feb 29
5:00 AM
Thu, Feb 29
6:00 AM
Thu, Feb 29
7:00 AM
Thu, Feb 29
8:00 AM
Thu, Feb 29
9:00 AM
Thu, Feb 29
10:00 AM
Thu, Feb 29
11:00 AM
Thu, Feb 29
12:00 PM
Thu, Feb 29
1:00 PM
Thu, Feb 29
2:00 PM
Thu, Feb 29
3:00 PM
Thu, Feb 29
4:00 PM
Thu, Feb 29
5:00 PM
Thu, Feb 29
6:00 PM
Thu, Feb 29
7:00 PM
Thu, Feb 29
8:00 PM
Thu, Feb 29
9:00 PM
Thu, Feb 29
10:00 PM
Thu, Feb 29
11:00 PM
Condition
Clear

Clear

Clear

Clear

Clear

Clear

Clear

Clouds

Clouds

Clouds

Clouds

Clouds

Clear

Clear

Clear

Clear

Clear

Clear

Clear

Clouds

Clouds

Clouds

Clouds

Clouds

Clouds

Clouds

Clouds

Clouds

Clouds

Clouds

Clouds

Clouds

Clouds

Clouds

Clouds

Clouds

Clouds

Clouds

Clouds

Clouds

Clouds

Clouds

Clouds

Clouds

Clouds

Clouds

Clouds

Clouds
Temperature 28°F29°F30°F31°F32°F34°F34°F34°F34°F34°F34°F35°F36°F36°F37°F38°F38°F39°F39°F39°F40°F40°F40°F40°F40°F40°F39°F39°F40°F40°F40°F41°F41°F42°F43°F44°F45°F45°F47°F49°F49°F49°F50°F50°F50°F49°F48°F47°F
Feels Like 23°F21°F21°F22°F24°F26°F27°F27°F27°F28°F28°F29°F31°F34°F37°F38°F36°F36°F35°F36°F36°F36°F36°F36°F35°F35°F34°F34°F35°F36°F36°F36°F37°F38°F40°F40°F41°F41°F43°F45°F45°F45°F45°F48°F43°F42°F41°F41°F
Cloudiness 7%6%6%6%5%6%10%13%12%13%14%14%5%5%7%8%9%8%9%11%12%13%14%15%20%17%16%36%49%57%100%99%99%99%99%100%100%98%77%75%80%84%100%100%100%100%100%100%
Visibility 6 mi6 mi6 mi6 mi6 mi6 mi6 mi6 mi6 mi6 mi6 mi6 mi6 mi6 mi6 mi6 mi6 mi6 mi6 mi6 mi6 mi6 mi6 mi6 mi6 mi6 mi6 mi6 mi6 mi6 mi6 mi6 mi6 mi6 mi6 mi6 mi6 mi6 mi6 mi6 mi6 mi6 mi6 mi6 mi6 mi6 mi6 mi6 mi
Precipitation 0%0%0%0%0%0%0%0%0%0%0%0%0%0%0%0%0%0%0%0%0%0%0%0%0%0%0%0%0%0%0%0%0%0%0%0%0%0%0%0%0%0%0%0%0%2%6%14%
Humidity 45%46%48%50%49%47%46%47%48%47%47%45%42%41%40%38%37%38%41%43%45%47%49%51%53%54%55%55%55%54%54%55%54%53%52%52%51%50%50%50%51%55%55%52%53%56%59%64%
Dew Point 11°F13°F15°F17°F17°F15°F15°F15°F16°F16°F16°F16°F15°F15°F14°F14°F14°F15°F17°F19°F20°F21°F22°F23°F24°F24°F24°F24°F24°F25°F25°F25°F25°F26°F26°F27°F27°F28°F29°F30°F32°F33°F34°F33°F33°F34°F34°F35°F
Pressure 30.27"30.27"30.27"30.27"30.27"30.27"30.27"30.27"30.3"30.3"30.3"30.27"30.27"30.24"30.21"30.18"30.15"30.12"30.12"30.12"30.09"30.09"30.09"30.09"30.06"30.06"30.03"30.03"30"30"29.97"29.97"29.97"29.97"29.94"29.91"29.88"29.85"29.83"29.77"29.71"29.68"29.68"29.68"29.68"29.68"29.68"29.71"
Wind Speed 4.5 mph7.9 mph10.2 mph11.7 mph11 mph9.6 mph8.3 mph8 mph8 mph7.6 mph7.7 mph7.2 mph5.3 mph3.5 mph2.2 mph2 mph3.2 mph4.3 mph5.2 mph5.2 mph5.4 mph5.8 mph5.8 mph6.1 mph6.6 mph6.8 mph7.3 mph7.1 mph6.4 mph6.3 mph6.2 mph6.7 mph6.2 mph5.5 mph4.3 mph5.5 mph6.9 mph8.4 mph8.4 mph9.2 mph11.4 mph9.8 mph11.2 mph21.8 mph22.3 mph21.5 mph20 mph15 mph
Wind
Direction
206°
SSW
171°
S
161°
SSE
164°
SSE
169°
S
174°
S
164°
SSE
152°
SSE
141°
SE
135°
SE
129°
SE
129°
SE
129°
SE
133°
SE
142°
SE
131°
SE
106°
ESE
98°
E
97°
E
95°
E
105°
ESE
112°
ESE
114°
ESE
110°
ESE
107°
ESE
102°
ESE
101°
E
105°
ESE
110°
ESE
110°
ESE
113°
ESE
124°
SE
134°
SE
146°
SE
146°
SE
152°
SSE
146°
SE
124°
SE
123°
ESE
142°
SE
135°
SE
134°
SE
179°
S
198°
SSW
194°
SSW
193°
SSW
188°
S
187°
S

Daily Forecast

Date High Low Precip. Humidity
Today
Feb 28

Clear
40 °F
28 °F
0%
42%
Thursday
Feb 29

Clouds
50 °F
39 °F
14%
51%
Friday
Mar 1

Rain
50 °F
41 °F
86%
54%
Saturday
Mar 2

Snow
46 °F
35 °F
88%
92%
Sunday
Mar 3

Snow
34 °F
31 °F
36%
46%
Monday
Mar 4

Clouds
37 °F
31 °F
0%
49%
Tuesday
Mar 5

Clouds
44 °F
37 °F
6%
54%
Wednesday
Mar 6

Rain
45 °F
41 °F
39%
62%
Thursday
Mar 7

Clouds
42 °F
38 °F
5%
71%
Friday
Mar 8

Clouds
40 °F
35 °F
2%
59%
Saturday
Mar 9

Clear
41 °F
35 °F
0%
57%
Sunday
Mar 10

Clouds
45 °F
38 °F
0%
51%
Monday
Mar 11

Clouds
46 °F
41 °F
0%
55%
Tuesday
Mar 12

Clear
47 °F
41 °F
0%
60%
Wednesday
Mar 13

Clouds
48 °F
44 °F
10%
56%
Thursday
Mar 14

Clear
42 °F
37 °F
0%
48%

Temperature 8-14 Day Outlook



Precipitation 8-14 Day Outlook




Quick Links
Great Salt Lake News
Great Salt Lake Photos
Great Salt Lake Videos




About Us
Contact Us
Site Map
Search Site
Advertise With Us
   
GreatSalt.USLakes.info
THE GREAT SALT LAKE WEBSITE

Copyright 2024, Lakes Online
Privacy    |    Legal